EVA391 RCTP-VVTS

Flight info

Callsign EVA391
Flight time N/A
Altitude 38000
Route CHALI1C CHALI T5 PARPA A577 KABAM/N0494F360 N892 MIKIN/N0485F390 N892 MIGUG/K0898F390 N892 MESOX/K0906F380 Q15 CRA W15 VETOM VETOM5G
Aircraft B77W/H-SDE1E2E3FGHIJ2J3J4J5M1RWXY/LB1D1

Departure

Time 2026-05-04 08:16
Airport Taiwan Taoyuan International Airport (RCTP)

Arrival

Time N/A
Airport Tan Son Nhat International Airport (VVTS)
Time Latitude Longitude Altitude Speed Heading
2026-05-04 07:42 25.07509 121.23321 106 ft 0 kts 319°
2026-05-04 08:02 25.07409 121.23387 106 ft 4 kts 36°
2026-05-04 08:02 25.07391 121.23367 104 ft 4 kts 49°
2026-05-04 08:02 25.07383 121.23356 104 ft 0 kts 49°
2026-05-04 08:06 25.07383 121.23357 104 ft 1 kts 49°
2026-05-04 08:06 25.07405 121.23385 105 ft 9 kts 49°
2026-05-04 08:06 25.07463 121.23461 107 ft 16 kts 50°
2026-05-04 08:08 25.07314 121.23595 106 ft 19 kts 229°
2026-05-04 08:08 25.07226 121.23483 106 ft 19 kts 229°
2026-05-04 08:10 25.06835 121.22568 108 ft 17 kts 320°
2026-05-04 08:11 25.06899 121.22507 107 ft 17 kts 320°
2026-05-04 08:11 25.07085 121.22332 108 ft 19 kts 319°
2026-05-04 08:11 25.07185 121.22236 109 ft 19 kts 319°
2026-05-04 08:12 25.07285 121.22143 109 ft 19 kts 320°
2026-05-04 08:12 25.07363 121.22061 108 ft 13 kts 297°
2026-05-04 08:12 25.07330 121.21972 106 ft 13 kts 230°
2026-05-04 08:12 25.07270 121.21894 108 ft 13 kts 229°
2026-05-04 08:13 25.07209 121.21817 108 ft 13 kts 229°
2026-05-04 08:13 25.07194 121.21727 108 ft 13 kts 306°
2026-05-04 08:13 25.07261 121.21655 107 ft 13 kts 322°
2026-05-04 08:13 25.07344 121.21670 107 ft 14 kts 46°
2026-05-04 08:14 25.07468 121.21829 107 ft 61 kts 49°
2026-05-04 08:14 25.07926 121.22407 108 ft 137 kts 49°
2026-05-04 08:14 25.08646 121.23275 571 ft 155 kts 46°
2026-05-04 08:16 25.15741 121.30554 4264 ft 275 kts
2026-05-04 08:16 25.17591 121.29921 5320 ft 282 kts 330°
2026-05-04 08:16 25.19111 121.28644 6693 ft 267 kts 310°
2026-05-04 08:17 25.20268 121.27069 7863 ft 263 kts 301°
2026-05-04 08:17 25.21307 121.25374 8765 ft 270 kts 299°
2026-05-04 08:17 25.22490 121.23764 9712 ft 273 kts 315°
2026-05-04 08:17 25.23944 121.22412 10463 ft 274 kts 307°
2026-05-04 08:19 25.26740 121.09588 16723 ft 280 kts 236°
2026-05-04 08:19 25.25688 121.08198 17036 ft 301 kts 232°
2026-05-04 08:20 25.24180 121.06374 17237 ft 330 kts 231°
2026-05-04 08:20 25.23035 121.04977 17377 ft 348 kts 232°